Location: Newark
(45.8667°N, 9.7333°E)
Time: 13:38:57
(UTC+00:00)

Vanguard 3 - Pass Details

Date: 25 January 2020
Orbit: 508 x 3263 km, 33.3° (Epoch: 24 February)

Event Time Altitude Azimuth Distance (km) Brightness Sun altitude
Rises 18:03:48 0° 247° (WSW) 7,146 13.4 -18.7°
Reaches altitude 10° 18:08:44 10° 243° (WSW) 6,194 12.7 -19.5°
Maximum altitude 18:27:23 52° 176° (S) 3,391 10.2 -22.8°
Enters shadow 18:36:29 27° 116° (ESE) 3,867 10.1 -24.3°
Drops below altitude 10° 18:41:04 10° 105° (ESE) 4,676 - -25.1°
Sets 18:44:12 0° 101° (E) 5,358 - -25.7°
